Weather History for KPOF - April, 2012

Change the Weather History Date:

Saturday, April 21, 2012

  Actual Average Record
Temperature  
Mean Temperature 56 °F -  
Max Temperature 66 °F 72 °F 89 °F (1963)
Min Temperature 46 °F 48 °F 31 °F (1918)
Degree Days  
Heating Degree Days 9    
Growing Degree Days 6 (Base 50)    
Moisture  
Dew Point 40 °F    
Average Humidity 63    
Maximum Humidity 82    
Minimum Humidity 33    
Precipitation  
Precipitation 0.01 in - - ()
Sea Level Pressure  
Sea Level Pressure 29.98 in    
Wind  
Wind Speed 9 mph (NNE)    
Max Wind Speed 16 mph    
Max Gust Speed 22 mph    
Visibility 10 miles    
Events      
Averages and records for this station are not official NWS values.
T = Trace of Precipitation, MM = Missing Value Source: NWS Daily Summary

Daily Weather History Graph

Daily Weather History Graph

Search for Another Location

Airport or City:

Trip Planner

Search our weather history database for the weather conditions in past years. The results will help you decide how hot, cold, wet, or windy it might be!

Date:

Astronomy

Apr. 21, 2012 Rise Set
Actual Time 6:18 AM CDT 7:41 PM CDT
Civil Twilight 5:51 AM CDT 8:08 PM CDT
Nautical Twilight 5:19 AM CDT 8:41 PM CDT
Astronomical Twilight 4:45 AM CDT 9:15 PM CDT
Moon 6:15 AM CDT (4/21) 8:20 PM CDT (4/21)
Length of Visible Light 14h 17m
Length of Day
13h 22m
New Moon, 0% of the Moon is Illuminated
Apr 21
New Moon
Apr 29
First Quarter
May 5
Full
May 12
Last Quarter
May 20
New

Hourly Weather History & Observations

Time (CDT) Temp. Dew Point Humidity Pressure Visibility Wind Dir Wind Speed Gust Speed Precip Events Conditions
12:21 AM 50.0 °F 42.8 °F 76% 29.99 in 10.0 mi NNW 6.9 mph - N/A   Overcast
12:48 AM 50.0 °F 42.8 °F 76% 29.99 in 10.0 mi North 8.1 mph - N/A   Overcast
12:53 AM 50.0 °F 43.0 °F 77% 29.99 in 10.0 mi North 8.1 mph - N/A   Overcast
1:46 AM 48.2 °F 42.8 °F 82% 29.98 in 10.0 mi North 6.9 mph - N/A   Overcast
1:53 AM 48.9 °F 43.0 °F 80% 29.98 in 10.0 mi North 8.1 mph - N/A   Overcast
2:02 AM 48.2 °F 42.8 °F 82% 29.98 in 10.0 mi North 8.1 mph - N/A   Overcast
2:53 AM 48.9 °F 42.1 °F 77% 29.97 in 10.0 mi North 12.7 mph - N/A   Overcast
3:53 AM 48.9 °F 41.0 °F 74% 29.98 in 10.0 mi NNE 10.4 mph - N/A   Overcast
4:53 AM 48.0 °F 39.9 °F 74% 29.97 in 10.0 mi North 16.1 mph 21.9 mph N/A   Overcast
5:53 AM 46.9 °F 39.0 °F 74% 29.98 in 10.0 mi North 13.8 mph - N/A   Overcast
6:53 AM 46.9 °F 39.0 °F 74% 29.99 in 10.0 mi NNE 6.9 mph - N/A   Overcast
7:53 AM 48.0 °F 39.0 °F 71% 30.00 in 10.0 mi North 8.1 mph - N/A   Overcast
8:53 AM 48.9 °F 39.9 °F 71% 30.00 in 10.0 mi NNE 10.4 mph - N/A   Mostly Cloudy
9:53 AM 52.0 °F 39.9 °F 63% 30.01 in 10.0 mi NNW 15.0 mph - 0.01 in   Overcast
10:20 AM 55.4 °F 42.8 °F 63% 30.00 in 10.0 mi NNE 11.5 mph - N/A   Scattered Clouds
10:53 AM 55.9 °F 41.0 °F 57% 30.00 in 10.0 mi North 12.7 mph - N/A   Scattered Clouds
11:53 AM 57.0 °F 41.0 °F 55% 29.99 in 10.0 mi North 13.8 mph 17.3 mph N/A   Clear
12:53 PM 60.1 °F 39.9 °F 47% 29.99 in 10.0 mi NNE 4.6 mph - N/A   Clear
1:53 PM 63.0 °F 39.9 °F 43% 29.96 in 10.0 mi NNE 8.1 mph - N/A   Clear
2:53 PM 64.9 °F 39.0 °F 39% 29.94 in 10.0 mi NE 6.9 mph - N/A   Clear
3:53 PM 64.9 °F 39.0 °F 39% 29.93 in 10.0 mi North 11.5 mph 16.1 mph N/A   Clear
4:53 PM 66.0 °F 36.0 °F 33% 29.93 in 10.0 mi Variable 3.5 mph - N/A   Clear
5:53 PM 64.9 °F 37.0 °F 36% 29.94 in 10.0 mi NE 8.1 mph - N/A   Clear
6:53 PM 61.0 °F 39.0 °F 44% 29.94 in 10.0 mi ENE 9.2 mph - N/A   Clear
7:53 PM 57.9 °F 37.9 °F 47% 29.96 in 10.0 mi ENE 6.9 mph - N/A   Clear
8:53 PM 54.0 °F 39.9 °F 59% 29.97 in 10.0 mi NE 4.6 mph - N/A   Clear
9:53 PM 51.1 °F 39.9 °F 66% 29.99 in 10.0 mi North 4.6 mph - N/A   Clear
11:53 PM 46.9 °F 41.0 °F 80% 29.99 in 10.0 mi Calm Calm - N/A   Clear